Date,TemperatureHighF,TemperatureAvgF,TemperatureLowF,DewpointHighF,DewpointAvgF,DewpointLowF,HumidityHigh,HumidityAvg,HumidityLow,PressureMaxIn,PressureMinIn,WindSpeedMaxMPH,WindSpeedAvgMPH,GustSpeedMaxMPH,PrecipitationSumIn
2013-12-1,39.3,35.1,31.4,39.0,34.9,29.0,100,98,84,25.71,25.31,36,3,36,2.56
2013-12-2,31.4,22.6,18.5,29.0,21.4,18.0,99,93,80,25.50,25.30,26,4,26,0.00
2013-12-3,21.8,18.9,12.8,23.0,15.9,8.0,98,84,65,25.68,25.49,9,2,9,0.00
2013-12-4,20.1,13.2,8.1,14.0,10.8,4.0,92,85,72,25.70,25.65,8,1,8,0.00
2013-12-5,19.6,11.0,6.7,14.0,8.1,4.0,92,84,56,25.66,25.56,13,2,13,0.00
2013-12-6,8.5,6.4,3.6,4.0,2.8,0.0,81,76,72,25.57,25.48,16,4,16,0.00
2013-12-7,12.8,3.9,0.6,4.0,0.6,-6.0,89,77,58,25.68,25.50,11,2,11,0.00
2013-12-8,20.1,10.7,2.8,16.0,6.8,0.0,95,81,47,25.87,25.66,9,1,9,0.00
2013-12-9,21.1,15.9,8.9,21.0,15.5,11.0,98,94,91,25.87,25.82,14,1,14,0.00
2013-12-10,27.5,22.5,15.9,26.0,22.3,16.0,99,96,90,25.89,25.82,11,1,11,0.00
2013-12-11,35.3,28.4,20.4,32.0,27.1,21.0,99,93,80,25.84,25.73,10,2,11,0.00
2013-12-12,40.4,32.5,29.4,32.0,28.8,23.0,100,86,51,25.74,25.61,19,1,20,0.03
2013-12-13,40.8,33.1,31.2,38.0,33.0,31.0,100,99,86,25.97,25.69,8,0,8,0.25
2013-12-14,38.6,32.9,30.6,37.0,32.9,31.0,100,99,90,25.95,25.86,8,1,8,0.11
2013-12-15,38.2,33.7,30.8,38.0,33.8,31.0,100,99,96,25.94,25.86,11,1,11,0.20
2013-12-16,38.0,32.4,28.1,35.0,31.7,28.0,100,97,86,25.99,25.84,9,1,9,0.04
2013-12-17,38.9,33.1,29.4,33.0,31.1,28.0,100,91,73,25.84,25.63,10,1,10,0.01
2013-12-18,33.9,28.0,21.0,33.0,26.9,18.0,100,93,68,25.64,25.49,15,4,16,0.01
2013-12-19,25.9,18.7,14.5,21.0,16.9,11.0,98,90,70,25.74,25.57,11,1,11,0.00
2013-12-20,37.6,27.8,15.8,37.0,27.3,14.0,100,96,89,25.41,25.27,22,2,23,0.64
2013-12-21,32.8,31.6,30.6,33.0,31.6,31.0,100,100,100,25.70,25.41,9,2,9,0.08
2013-12-22,33.8,32.4,30.7,35.0,32.5,31.0,100,100,100,25.86,25.69,6,0,6,0.13
2013-12-23,35.6,32.1,25.9,36.0,31.0,24.0,100,95,80,25.95,25.68,28,2,28,0.52
2013-12-24,30.7,24.4,20.2,29.0,23.7,21.0,100,93,81,26.04,25.95,8,1,8,0.00
2013-12-25,39.6,31.5,26.0,33.0,27.6,23.0,95,84,71,25.98,25.92,8,1,8,0.06
2013-12-26,39.4,33.4,31.2,35.0,31.0,28.0,96,90,76,25.93,25.80,8,1,8,0.02
2013-12-27,43.4,34.7,30.6,37.0,30.8,26.0,100,85,63,25.87,25.71,16,2,17,0.12
2013-12-28,33.4,27.0,24.1,31.0,26.5,23.0,100,96,86,25.98,25.86,6,0,6,0.01
2013-12-29,36.8,31.6,25.3,35.0,29.2,23.0,100,89,75,25.95,25.84,11,1,11,0.00
2013-12-30,40.2,35.3,32.3,39.0,35.4,32.0,100,99,90,25.86,25.71,13,1,13,0.19
2013-12-31,34.0,31.5,28.4,35.0,31.8,28.0,100,100,100,25.87,25.71,11,1,11,0.13